Location: Dobroszyce
(51.2646°N, 17.3392°E)
Time: 05:22:26
(UTC+02:00)

ISS - Visible Passes

Search period start: 28 May 2018 00:00
Search period end: 07 June 2018 00:00
Orbit: 402 x 407 km, 51.6° (Epoch: 28 May)

Date Brightness Start Highest point End Pass type
(mag) Time Alt. Az. Time Alt. Az. Time Alt. Az.
28 May -1.7 01:07:21 10° W 01:08:21 16° W 01:08:21 16° W visible
28 May -3.9 22:38:26 10° W 22:41:43 87° N 22:45:00 10° E visible
29 May -3.1 00:15:00 10° W 00:17:42 37° SW 00:17:42 37° SW visible
29 May -3.7 21:46:12 10° W 21:49:28 81° N 21:52:46 10° E visible
29 May -3.7 23:22:43 10° W 23:25:56 55° SSW 23:27:06 33° SE visible
30 May -3.9 22:30:27 10° W 22:33:44 74° SSW 22:36:30 14° ESE visible
31 May -2.2 00:07:14 10° W 00:09:08 21° SW 00:09:08 21° SW visible
31 May -3.8 21:38:11 10° W 21:41:29 89° S 21:44:46 10° E visible
31 May -3.0 23:14:47 10° W 23:17:47 33° SSW 23:18:35 29° S visible
01 Jun -3.5 22:22:26 10° W 22:25:37 49° SSW 22:28:02 16° SE visible
02 Jun -1.4 00:00:01 10° WSW 00:00:40 12° WSW 00:00:40 12° WSW visible
02 Jun -2.2 23:07:01 10° W 23:09:29 20° SW 23:10:09 18° SSW visible
03 Jun -2.6 22:14:28 10° W 22:17:22 29° SSW 22:19:40 14° SSE visible
04 Jun -1.3 23:00:15 10° WSW 23:01:01 11° SW 23:01:46 10° SSW visible
05 Jun -1.8 22:06:45 10° W 22:08:57 17° SW 22:11:09 10° S visible
